Location: Wanzleben
(52.0609°N, 11.4408°E)
Time: 17:11:14
(UTC+00:00)

Envisat - Pass Details

Date: 01 December 2020
Orbit: 764 x 766 km, 98.1° (Epoch: 20 January)

Event Time Altitude Azimuth Distance (km) Brightness Sun altitude
Rises 03:37:26 0° 29° (NNE) 3,247 6.6 -30.2°
Reaches altitude 10° 03:41:08 10° 57° (ENE) 2,313 6.2 -29.6°
Maximum altitude 03:43:27 13° 84° (E) 2,104 6.1 -29.2°
Drops below altitude 10° 03:45:46 10° 111° (ESE) 2,305 6.3 -28.9°
Sets 03:49:26 0° 139° (SE) 3,224 6.8 -28.3°
